• En España
  • Lista de países
  • Para 7 días
  • Temperatura del agua
  • Mapa Satelital
  • El tiempo en el mapa
  • Informadores
  • user-avatar
    Iniciar sesión

    Tiempo cada hora Naxçıvanlı

    Hoy, 24 Septiembre, Domingo

    Tiempo Temperatura Precipitaciones Viento Presión Humedad
    00:00 +25°C° 0 mm 2 mps 688 mmHg 47%
    01:00 +24°C° 0 mm 2 mps 688 mmHg 48%
    02:00 +24°C° 0 mm 2 mps 688 mmHg 49%
    03:00 +23°C° 0 mm 1 mps 688 mmHg 53%
    04:00 +23°C° 0 mm 1 mps 688 mmHg 54%
    05:00 +23°C° 0 mm 1 mps 688 mmHg 56%
    06:00 +22°C° 0 mm 1 mps 688 mmHg 57%
    07:00 +24°C° 0 mm 1 mps 689 mmHg 51%
    08:00 +26°C° 0 mm 2 mps 689 mmHg 45%
    09:00 +27°C° 0 mm 2 mps 690 mmHg 40%
    10:00 +28°C° 0 mm 2 mps 690 mmHg 36%
    11:00 +29°C° 0 mm 2 mps 690 mmHg 32%
    12:00 +30°C° 0 mm 2 mps 690 mmHg 27%
    13:00 +31°C° 0 mm 2 mps 690 mmHg 26%
    14:00 +31°C° 0 mm 2 mps 689 mmHg 25%
    15:00 +33°C° 0 mm 3 mps 689 mmHg 23%
    16:00 +30°C° 0 mm 3 mps 689 mmHg 26%
    17:00 +29°C° 0 mm 3 mps 689 mmHg 29%
    18:00 +28°C° 0 mm 3 mps 689 mmHg 32%
    19:00 +27°C° 0 mm 2 mps 689 mmHg 37%
    20:00 +26°C° 0 mm 2 mps 689 mmHg 41%
    21:00 +25°C° 0 mm 2 mps 690 mmHg 45%
    22:00 +25°C° 0 mm 2 mps 690 mmHg 47%
    23:00 +24°C° 0 mm 2 mps 690 mmHg 50%

    Mañana, 25 Septiembre, Lunes

    Tiempo Temperatura Precipitaciones Viento Presión Humedad
    00:00 +24°C° 0 mm 2 mps 690 mmHg 52%
    01:00 +23°C° 0 mm 2 mps 690 mmHg 54%
    02:00 +23°C° 0 mm 1 mps 690 mmHg 55%
    03:00 +22°C° 0 mm 1 mps 690 mmHg 57%
    04:00 +22°C° 0 mm 1 mps 690 mmHg 58%
    05:00 +21°C° 0 mm 1 mps 690 mmHg 59%
    06:00 +21°C° 0 mm 1 mps 690 mmHg 61%
    07:00 +22°C° 0 mm 1 mps 690 mmHg 54%
    08:00 +24°C° 0 mm 1 mps 690 mmHg 47%
    09:00 +25°C° 0 mm 1 mps 690 mmHg 40%
    10:00 +26°C° 0 mm 1 mps 690 mmHg 36%
    11:00 +27°C° 0 mm 1 mps 690 mmHg 31%
    12:00 +29°C° 0 mm 2 mps 690 mmHg 27%
    13:00 +29°C° 0,2 mm 2 mps 690 mmHg 25%
    14:00 +29°C° 0,2 mm 2 mps 689 mmHg 24%
    15:00 +30°C° 0,2 mm 2 mps 689 mmHg 22%
    16:00 +29°C° 0,2 mm 2 mps 689 mmHg 24%
    17:00 +28°C° 0,2 mm 2 mps 689 mmHg 27%
    18:00 +27°C° 0,2 mm 2 mps 689 mmHg 29%
    19:00 +26°C° 0 mm 2 mps 689 mmHg 33%
    20:00 +25°C° 0 mm 2 mps 689 mmHg 37%
    21:00 +24°C° 0 mm 2 mps 689 mmHg 41%
    22:00 +24°C° 0 mm 2 mps 689 mmHg 44%
    23:00 +23°C° 0 mm 2 mps 689 mmHg 47%

    Pasado mañana, 26 Septiembre, Martes

    Tiempo Temperatura Precipitaciones Viento Presión Humedad
    00:00 +21°C° 0 mm 2 mps 689 mmHg 49%
    01:00 +22°C° 0 mm 1 mps 689 mmHg 51%
    02:00 +21°C° 0 mm 1 mps 689 mmHg 52%
    03:00 +21°C° 0 mm 1 mps 689 mmHg 54%
    04:00 +21°C° 0 mm 1 mps 689 mmHg 54%
    05:00 +20°C° 0 mm 1 mps 688 mmHg 55%
    06:00 +20°C° 0 mm 1 mps 688 mmHg 55%
    07:00 +21°C° 0 mm 1 mps 688 mmHg 49%
    08:00 +23°C° 0 mm 1 mps 689 mmHg 43%
    09:00 +25°C° 0 mm 1 mps 689 mmHg 37%
    10:00 +26°C° 0 mm 1 mps 689 mmHg 34%
    11:00 +27°C° 0 mm 2 mps 688 mmHg 30%
    12:00 +29°C° 0 mm 2 mps 688 mmHg 27%
    13:00 +29°C° 0 mm 2 mps 688 mmHg 26%
    14:00 +30°C° 0 mm 3 mps 688 mmHg 24%
    15:00 +30°C° 0 mm 3 mps 687 mmHg 23%
    16:00 +29°C° 0 mm 3 mps 687 mmHg 25%
    17:00 +28°C° 0 mm 2 mps 687 mmHg 28%
    18:00 +27°C° 0 mm 2 mps 687 mmHg 31%
    19:00 +26°C° 0 mm 2 mps 687 mmHg 35%
    20:00 +25°C° 0 mm 2 mps 687 mmHg 38%
    21:00 +25°C° 0 mm 2 mps 688 mmHg 42%
    22:00 +24°C° 0 mm 2 mps 687 mmHg 44%
    23:00 +23°C° 0 mm 2 mps 687 mmHg 46%

    27 Septiembre, Miércoles

    Tiempo Temperatura Precipitaciones Viento Presión Humedad
    00:00 +23°C° 0 mm 2 mps 687 mmHg 48%
    01:00 +21°C° 0 mm 2 mps 687 mmHg 49%
    02:00 +21°C° 0 mm 2 mps 687 mmHg 51%
    03:00 +21°C° 0 mm 1 mps 687 mmHg 52%
    04:00 +21°C° 0 mm 1 mps 687 mmHg 53%
    05:00 +20°C° 0 mm 1 mps 687 mmHg 55%
    06:00 +20°C° 0 mm 1 mps 687 mmHg 57%
    07:00 +22°C° 0 mm 1 mps 687 mmHg 50%
    08:00 +23°C° 0 mm 1 mps 687 mmHg 44%
    09:00 +25°C° 0 mm 1 mps 688 mmHg 38%
    10:00 +26°C° 0 mm 2 mps 687 mmHg 34%
    11:00 +28°C° 0 mm 2 mps 687 mmHg 30%
    12:00 +29°C° 0 mm 3 mps 687 mmHg 27%
    13:00 +29°C° 0 mm 3 mps 687 mmHg 25%
    14:00 +30°C° 0 mm 4 mps 686 mmHg 23%
    15:00 +32°C° 0 mm 4 mps 686 mmHg 22%
    16:00 +29°C° 0 mm 4 mps 686 mmHg 25%
    17:00 +28°C° 0 mm 3 mps 686 mmHg 28%
    18:00 +27°C° 0 mm 3 mps 686 mmHg 32%
    19:00 +26°C° 0 mm 3 mps 687 mmHg 36%
    20:00 +25°C° 0 mm 3 mps 687 mmHg 41%
    21:00 +24°C° 0 mm 3 mps 687 mmHg 45%
    22:00 +23°C° 0 mm 2 mps 687 mmHg 48%
    23:00 +21°C° 0 mm 2 mps 687 mmHg 50%

    28 Septiembre, Jueves

    Tiempo Temperatura Precipitaciones Viento Presión Humedad
    00:00 +21°C° 0 mm 2 mps 687 mmHg 53%
    01:00 +20°C° 0 mm 2 mps 687 mmHg 55%
    02:00 +20°C° 0 mm 2 mps 687 mmHg 57%
    03:00 +20°C° 0 mm 1 mps 687 mmHg 59%
    04:00 +20°C° 0 mm 1 mps 687 mmHg 60%
    05:00 +19°C° 0 mm 1 mps 687 mmHg 61%
    06:00 +19°C° 0 mm 1 mps 687 mmHg 62%
    07:00 +20°C° 0 mm 1 mps 688 mmHg 56%
    08:00 +21°C° 0 mm 2 mps 688 mmHg 49%
    09:00 +23°C° 0 mm 2 mps 689 mmHg 43%
    10:00 +24°C° 0 mm 2 mps 688 mmHg 39%
    11:00 +26°C° 0 mm 2 mps 688 mmHg 35%
    12:00 +27°C° 0 mm 3 mps 688 mmHg 31%
    13:00 +27°C° 0 mm 3 mps 688 mmHg 30%
    14:00 +28°C° 0 mm 3 mps 688 mmHg 29%
    15:00 +28°C° 0 mm 4 mps 688 mmHg 28%
    16:00 +27°C° 0 mm 4 mps 688 mmHg 32%
    17:00 +26°C° 0 mm 3 mps 688 mmHg 36%
    18:00 +25°C° 0 mm 3 mps 688 mmHg 39%
    19:00 +24°C° 0 mm 3 mps 688 mmHg 43%
    20:00 +22°C° 0 mm 3 mps 689 mmHg 46%
    21:00 +21°C° 0 mm 3 mps 689 mmHg 49%
    22:00 +21°C° 0 mm 2 mps 689 mmHg 51%
    23:00 +20°C° 0 mm 2 mps 689 mmHg 53%

    29 Septiembre, Viernes

    Tiempo Temperatura Precipitaciones Viento Presión Humedad
    00:00 +19°C° 0 mm 2 mps 689 mmHg 55%
    01:00 +19°C° 0 mm 2 mps 689 mmHg 57%
    02:00 +18°C° 0 mm 2 mps 689 mmHg 58%
    03:00 +18°C° 0 mm 2 mps 689 mmHg 60%
    04:00 +18°C° 0 mm 2 mps 689 mmHg 61%
    05:00 +18°C° 0 mm 1 mps 689 mmHg 62%
    06:00 +18°C° 0 mm 1 mps 689 mmHg 64%
    07:00 +18°C° 0 mm 2 mps 690 mmHg 58%
    08:00 +20°C° 0 mm 2 mps 690 mmHg 51%
    09:00 +21°C° 0 mm 2 mps 690 mmHg 45%
    10:00 +24°C° 0 mm 2 mps 690 mmHg 41%
    11:00 +25°C° 0 mm 3 mps 690 mmHg 36%
    12:00 +26°C° 0 mm 3 mps 689 mmHg 32%
    13:00 +27°C° 0 mm 3 mps 689 mmHg 30%
    14:00 +28°C° 0 mm 4 mps 689 mmHg 27%
    15:00 +28°C° 0 mm 4 mps 688 mmHg 25%
    16:00 +27°C° 0 mm 4 mps 688 mmHg 27%
    17:00 +26°C° 0 mm 4 mps 688 mmHg 30%
    18:00 +25°C° 0 mm 3 mps 688 mmHg 33%
    19:00 +24°C° 0 mm 3 mps 688 mmHg 36%
    20:00 +22°C° 0 mm 3 mps 688 mmHg 40%
    21:00 +21°C° 0 mm 3 mps 688 mmHg 44%
    22:00 +21°C° 0 mm 3 mps 688 mmHg 46%
    23:00 +20°C° 0 mm 3 mps 688 mmHg 47%
    Mostrar más